Retour au catalogue

CZ-6A DEB

ActifPO
NORAD 54626·DEBRIS·🇨🇳 China

Lancé Nov 11, 2022 depuis Taiyuan Satellite Launch Center

Loading…

Prochains Passages (prochaines 24 heures)

TLE

FraisSource: Space-Track

Époque: Sep 14, 2026, 10:36 UTC

1 54626U 22151PC  26257.44221896  .00005132  00000-0  90198-3 0  9993
2 54626  98.6085 319.6556 0074255  25.1872 335.2922 14.66318775201865

Suivez CZ-6A DEB en temps réel avec AllMySat

Download on the App Store